When you browse on this site, cookies collect data to enhance your experience and personalize the content and advertising you see.
Visit our Privacy Policy to learn more. By continuing to use the site, you agree to this use of cookies and data.
  • en Suisse
  • Liste des pays
  • À 7 jours
  • Température de l'eau
  • Carte météo
  • Widgets météo
  • user-avatar
    Se connecter

    Météo par heure à Ipswich

    Ce jour, 18 Septembre, Mercredi

    Heure Température Précipitation Vent Pression Humidité
    00:00 +9°C° 0 mm 3 m/s 770 mmHg 82%
    01:00 +9°C° 0 mm 3 m/s 770 mmHg 82%
    02:00 +8°C° 0 mm 3 m/s 769 mmHg 82%
    03:00 +8°C° 0 mm 3 m/s 769 mmHg 82%
    04:00 +8°C° 0 mm 3 m/s 770 mmHg 82%
    05:00 +8°C° 0 mm 3 m/s 770 mmHg 81%
    06:00 +8°C° 0 mm 3 m/s 770 mmHg 81%
    07:00 +10°C° 0 mm 3 m/s 770 mmHg 74%
    08:00 +12°C° 0 mm 3 m/s 771 mmHg 67%
    09:00 +13°C° 0 mm 3 m/s 771 mmHg 60%
    10:00 +14°C° 0 mm 3 m/s 771 mmHg 57%
    11:00 +16°C° 0 mm 3 m/s 771 mmHg 53%
    12:00 +17°C° 0 mm 3 m/s 771 mmHg 49%
    13:00 +18°C° 0 mm 3 m/s 771 mmHg 49%
    14:00 +18°C° 0 mm 3 m/s 771 mmHg 49%
    15:00 +18°C° 0 mm 3 m/s 770 mmHg 48%
    16:00 +17°C° 0 mm 3 m/s 770 mmHg 54%
    17:00 +16°C° 0 mm 3 m/s 770 mmHg 60%
    18:00 +13°C° 0 mm 3 m/s 770 mmHg 66%
    19:00 +14°C° 0 mm 2 m/s 770 mmHg 69%
    20:00 +13°C° 0 mm 2 m/s 771 mmHg 71%
    21:00 +12°C° 0 mm 2 m/s 771 mmHg 74%
    22:00 +12°C° 0 mm 1 m/s 771 mmHg 75%
    23:00 +12°C° 0 mm 1 m/s 771 mmHg 76%

    Demain, 19 Septembre, Jeudi

    Heure Température Précipitation Vent Pression Humidité
    00:00 +12°C° 0 mm 1 m/s 771 mmHg 77%
    01:00 +12°C° 0 mm 1 m/s 771 mmHg 78%
    02:00 +11°C° 0 mm 1 m/s 771 mmHg 79%
    03:00 +11°C° 0 mm 1 m/s 771 mmHg 80%
    04:00 +11°C° 0 mm 1 m/s 771 mmHg 81%
    05:00 +11°C° 0 mm 1 m/s 771 mmHg 82%
    06:00 +11°C° 0 mm 1 m/s 771 mmHg 83%
    07:00 +13°C° 0 mm 1 m/s 772 mmHg 76%
    08:00 +15°C° 0 mm 1 m/s 772 mmHg 68%
    09:00 +15°C° 0 mm 0 m/s 772 mmHg 61%
    10:00 +18°C° 0 mm 1 m/s 772 mmHg 59%
    11:00 +19°C° 0 mm 1 m/s 772 mmHg 56%
    12:00 +20°C° 0 mm 2 m/s 772 mmHg 54%
    13:00 +20°C° 0 mm 2 m/s 771 mmHg 54%
    14:00 +20°C° 0 mm 2 m/s 771 mmHg 54%
    15:00 +20°C° 0 mm 2 m/s 771 mmHg 54%
    16:00 +18°C° 0 mm 2 m/s 771 mmHg 60%
    17:00 +17°C° 0 mm 2 m/s 771 mmHg 65%
    18:00 +16°C° 0 mm 2 m/s 770 mmHg 71%
    19:00 +15°C° 0 mm 2 m/s 771 mmHg 73%
    20:00 +14°C° 0 mm 2 m/s 771 mmHg 76%
    21:00 +13°C° 0 mm 3 m/s 771 mmHg 79%
    22:00 +14°C° 0 mm 2 m/s 771 mmHg 80%
    23:00 +13°C° 0 mm 2 m/s 771 mmHg 82%

    Après-demain, 20 Septembre, Vendredi

    Heure Température Précipitation Vent Pression Humidité
    00:00 +13°C° 0 mm 2 m/s 770 mmHg 84%
    01:00 +13°C° 0 mm 2 m/s 770 mmHg 85%
    02:00 +13°C° 0 mm 2 m/s 770 mmHg 86%
    03:00 +13°C° 0 mm 2 m/s 770 mmHg 87%
    04:00 +13°C° 0 mm 2 m/s 770 mmHg 88%
    05:00 +11°C° 0 mm 3 m/s 769 mmHg 89%
    06:00 +11°C° 0 mm 3 m/s 769 mmHg 90%
    07:00 +13°C° 0 mm 4 m/s 769 mmHg 83%
    08:00 +15°C° 0 mm 4 m/s 769 mmHg 76%
    09:00 +16°C° 0 mm 5 m/s 769 mmHg 69%
    10:00 +17°C° 0 mm 5 m/s 769 mmHg 64%
    11:00 +17°C° 0 mm 6 m/s 768 mmHg 60%
    12:00 +19°C° 0 mm 6 m/s 768 mmHg 56%
    13:00 +19°C° 0 mm 6 m/s 767 mmHg 56%
    14:00 +17°C° 0 mm 6 m/s 766 mmHg 55%
    15:00 +17°C° 0 mm 6 m/s 766 mmHg 55%
    16:00 +16°C° 0 mm 6 m/s 765 mmHg 59%
    17:00 +15°C° 0 mm 6 m/s 765 mmHg 63%
    18:00 +14°C° 0 mm 6 m/s 764 mmHg 68%
    19:00 +15°C° 0 mm 7 m/s 764 mmHg 69%
    20:00 +15°C° 0 mm 7 m/s 764 mmHg 70%
    21:00 +15°C° 0 mm 7 m/s 764 mmHg 71%
    22:00 +15°C° 0 mm 7 m/s 763 mmHg 70%
    23:00 +15°C° 0 mm 7 m/s 763 mmHg 69%

    21 Septembre, Samedi

    Heure Température Précipitation Vent Pression Humidité
    00:00 +15°C° 0 mm 7 m/s 762 mmHg 67%
    01:00 +14°C° 0 mm 7 m/s 762 mmHg 66%
    02:00 +14°C° 0 mm 7 m/s 761 mmHg 65%
    03:00 +14°C° 0 mm 7 m/s 761 mmHg 64%
    04:00 +14°C° 0 mm 6 m/s 760 mmHg 65%
    05:00 +13°C° 0 mm 6 m/s 760 mmHg 67%
    06:00 +13°C° 0 mm 6 m/s 759 mmHg 68%
    07:00 +14°C° 0 mm 6 m/s 759 mmHg 64%
    08:00 +15°C° 0 mm 7 m/s 759 mmHg 60%
    09:00 +16°C° 0 mm 7 m/s 759 mmHg 56%
    10:00 +17°C° 0 mm 7 m/s 759 mmHg 55%
    11:00 +19°C° 0 mm 6 m/s 758 mmHg 54%
    12:00 +19°C° 0 mm 6 m/s 757 mmHg 53%
    13:00 +20°C° 0 mm 6 m/s 757 mmHg 53%
    14:00 +20°C° 0 mm 6 m/s 756 mmHg 54%
    15:00 +20°C° 0 mm 6 m/s 756 mmHg 54%
    16:00 +19°C° 0 mm 5 m/s 755 mmHg 58%
    17:00 +19°C° 0 mm 5 m/s 755 mmHg 63%
    18:00 +17°C° 0 mm 5 m/s 754 mmHg 67%
    19:00 +17°C° 0 mm 5 m/s 754 mmHg 71%
    20:00 +17°C° 0 mm 5 m/s 754 mmHg 75%
    21:00 +17°C° 0 mm 5 m/s 754 mmHg 78%
    22:00 +17°C° 0 mm 5 m/s 753 mmHg 80%
    23:00 +19°C° 0 mm 5 m/s 753 mmHg 82%

    22 Septembre, Dimanche

    Heure Température Précipitation Vent Pression Humidité
    00:00 +19°C° 0 mm 4 m/s 753 mmHg 84%
    01:00 +19°C° 0.2 mm 5 m/s 752 mmHg 86%
    02:00 +19°C° 0.2 mm 5 m/s 752 mmHg 88%
    03:00 +17°C° 0.2 mm 5 m/s 752 mmHg 90%
    04:00 +17°C° 0.3 mm 5 m/s 752 mmHg 92%
    05:00 +17°C° 0.3 mm 6 m/s 752 mmHg 93%
    06:00 +17°C° 0.3 mm 6 m/s 752 mmHg 95%
    07:00 +19°C° 0 mm 6 m/s 752 mmHg 91%
    08:00 +19°C° 0 mm 6 m/s 752 mmHg 87%
    09:00 +20°C° 0 mm 5 m/s 752 mmHg 83%
    10:00 +20°C° 0.1 mm 6 m/s 752 mmHg 80%
    11:00 +19°C° 0.1 mm 6 m/s 752 mmHg 78%
    12:00 +19°C° 0.1 mm 6 m/s 753 mmHg 75%
    13:00 +20°C° 0 mm 6 m/s 753 mmHg 70%
    14:00 +21°C° 0 mm 6 m/s 753 mmHg 65%
    15:00 +22°C° 0 mm 7 m/s 753 mmHg 60%
    16:00 +21°C° 0 mm 6 m/s 753 mmHg 62%
    17:00 +20°C° 0 mm 6 m/s 753 mmHg 63%
    18:00 +19°C° 0 mm 5 m/s 753 mmHg 64%
    19:00 +17°C° 0 mm 5 m/s 754 mmHg 68%
    20:00 +16°C° 0 mm 5 m/s 754 mmHg 73%
    21:00 +15°C° 0 mm 5 m/s 754 mmHg 77%
    22:00 +14°C° 0 mm 5 m/s 754 mmHg 79%
    23:00 +14°C° 0 mm 5 m/s 754 mmHg 81%

    23 Septembre, Lundi

    Heure Température Précipitation Vent Pression Humidité
    00:00 +13°C° 0 mm 5 m/s 755 mmHg 83%
    01:00 +13°C° 0 mm 5 m/s 755 mmHg 85%
    02:00 +13°C° 0 mm 5 m/s 755 mmHg 86%
    03:00 +12°C° 0 mm 5 m/s 755 mmHg 88%
    04:00 +12°C° 0 mm 4 m/s 756 mmHg 90%
    05:00 +12°C° 0 mm 4 m/s 756 mmHg 92%
    06:00 +11°C° 0 mm 4 m/s 756 mmHg 94%
    07:00 +13°C° 0 mm 4 m/s 757 mmHg 85%
    08:00 +14°C° 0 mm 5 m/s 757 mmHg 76%
    09:00 +16°C° 0 mm 6 m/s 758 mmHg 67%
    10:00 +17°C° 0 mm 6 m/s 758 mmHg 61%
    11:00 +17°C° 0 mm 6 m/s 758 mmHg 54%
    12:00 +19°C° 0 mm 6 m/s 758 mmHg 47%
    13:00 +20°C° 0 mm 6 m/s 758 mmHg 47%
    14:00 +20°C° 0 mm 6 m/s 758 mmHg 46%
    15:00 +20°C° 0 mm 5 m/s 758 mmHg 46%
    16:00 +19°C° 0 mm 5 m/s 758 mmHg 52%
    17:00 +17°C° 0 mm 5 m/s 758 mmHg 57%
    18:00 +16°C° 0 mm 5 m/s 758 mmHg 63%
    19:00 +16°C° 0 mm 5 m/s 758 mmHg 69%
    20:00 +15°C° 0 mm 6 m/s 758 mmHg 75%
    21:00 +15°C° 0 mm 6 m/s 758 mmHg 81%
    22:00 +15°C° 0.4 mm 6 m/s 757 mmHg 84%
    23:00 +15°C° 0.4 mm 7 m/s 757 mmHg 88%
    Voir plus